Location: Tierra del Sol
(32.6128°N, 116.3319°W)
Time: 00:08:40
(UTC-08:00)

Amateur Radio Satellites - All Passes

Search period start: 03 December 2016 23:38
Search period end: 04 December 2016 23:38
Location: Tierra del Sol, 32.6128°N, 116.3319°W

Satellite Date Start Highest point End Downlink Frequencies (MHz)
Time Altitude Azimuth
BUGSAT 1 03 Dec 23:40:32 23:44:25 37° 98° (E) 23:48:15 437.445
NANOSAT C BR1 03 Dec 23:45:07 23:49:15 55° 285° (WNW) 23:53:21 145.865
QB50P2 03 Dec 23:48:38 23:52:38 42° 286° (WNW) 23:56:36 145.880/145.840
POLYITAN 1 03 Dec 23:49:13 23:53:15 44° 286° (WNW) 23:57:15 437.675
CUBEBUG 1 03 Dec 23:56:12 23:58:53 16° 266° (W) 00:01:35 437.445
VELOX 1 03 Dec 23:59:46 00:03:10 22° 264° (W) 00:06:37 145.980
QB50P1 04 Dec 00:03:21 00:07:04 30° 288° (WNW) 00:10:45 145.935-145.965
DUCHIFAT 1 04 Dec 00:09:00 00:12:41 30° 288° (WNW) 00:16:23 145.980
Oscar 19 04 Dec 00:12:52 00:16:34 19° 95° (E) 00:20:15 437.125/150
JAS-2 04 Dec 00:17:06 00:21:11 24° 291° (WNW) 00:25:24 435.910
PHONESAT 2.4 04 Dec 00:18:11 00:20:49 61° 150° (SSE) 00:23:27 2401.200-2431.200
ISS 04 Dec 00:20:10 00:23:26 57° 227° (SW) 00:26:39 145.825
DX 1 04 Dec 00:21:10 00:24:38 23° 263° (W) 00:28:07 434.975-435.025
POPSAT HIP 1 04 Dec 00:25:21 00:28:13 18° 291° (WNW) 00:31:03 437.405
Cosmos 2499 04 Dec 00:29:11 00:37:31 81° 94° (E) 00:46:22 435.465 / 435.565
UKube-1 04 Dec 00:33:12 00:36:36 23° 263° (W) 00:40:01 .
AO-85 04 Dec 00:36:43 00:39:11 14° 109° (ESE) 00:41:34 145.980
AUBIESAT-1 04 Dec 00:40:41 00:43:50 22° 65° (ENE) 00:47:10 437.475
TISAT 1 04 Dec 00:44:54 00:49:06 69° 259° (WSW) 00:53:21 437.305
M-CUBED/EXP-1 PRIME 04 Dec 00:50:16 00:53:52 36° 67° (ENE) 00:57:46 437.505
SWISSCUBE 04 Dec 01:05:09 01:09:31 37° 72° (ENE) 01:13:53 437.505
BEESAT 04 Dec 01:09:28 01:13:50 36° 72° (ENE) 01:18:11 436.000
GONETS M04 04 Dec 01:09:54 01:18:31 63° 279° (W) 01:27:09
BUGSAT 1 04 Dec 01:17:15 01:19:24 14° 292° (WNW) 01:21:33 437.445
Gurwin Techsat 1B 04 Dec 01:27:47 01:33:01 57° 101° (E) 01:38:13 435.225
ITUPSAT 1 04 Dec 01:35:03 01:39:48 70° 75° (ENE) 01:44:33 437.325
O/OREOS (USA 219) 04 Dec 01:37:31 01:41:28 30° 66° (ENE) 01:45:24 437.305
Oscar 19 04 Dec 01:51:08 01:55:56 39° 288° (WNW) 02:00:44 437.125/150
PHONESAT 2.4 04 Dec 01:54:03 01:56:14 22° 345° (NNW) 01:58:25 2401.200-2431.200
AO-85 04 Dec 02:14:18 02:19:15 56° 300° (WNW) 02:23:53 145.980
ITAMSAT 1 04 Dec 02:14:24 02:19:02 33° 98° (E) 02:23:38 435.822/435.867
AUBIESAT-1 04 Dec 02:14:56 02:18:06 23° 261° (W) 02:21:28 437.475
Cosmos 2499 04 Dec 02:26:16 02:31:36 18° 292° (WNW) 02:37:08 435.465 / 435.565
M-CUBED/EXP-1 PRIME 04 Dec 02:26:31 02:28:31 13° 263° (W) 02:30:35 437.505
MOZHAYETS 4 04 Dec 02:36:02 02:40:37 71° 76° (ENE) 02:45:11
SWISSCUBE 04 Dec 02:44:09 02:47:21 18° 265° (W) 02:50:33 437.505
BEESAT 04 Dec 02:48:26 02:51:39 18° 265° (W) 02:54:53 436.000
AO-7 04 Dec 02:51:00 02:58:57 46° 101° (ESE) 03:06:51 29.400- 29.500
Gurwin Techsat 1B 04 Dec 03:09:30 03:12:25 15° 295° (WNW) 03:15:20 435.225
O/OREOS (USA 219) 04 Dec 03:17:31 03:20:35 18° 259° (W) 03:23:39 437.305
KKS-1 04 Dec 03:23:04 03:27:30 80° 257° (WSW) 03:32:00 437.445
PHONESAT 2.4 04 Dec 03:30:25 03:32:04 15° 2° (N) 03:33:42 2401.200-2431.200
STARS 04 Dec 03:35:30 03:39:51 61° 75° (ENE) 03:44:13 437.465
ITAMSAT 1 04 Dec 03:54:12 03:58:16 24° 292° (WNW) 04:02:20 435.822/435.867
CUBESAT XI-V 04 Dec 04:09:33 04:14:08 82° 258° (WSW) 04:18:45 437.345
GOMX 1 04 Dec 04:33:09 04:37:09 20° 94° (E) 04:41:06 467.674
HORYU 2 04 Dec 04:33:31 04:37:28 31° 98° (E) 04:41:23 437.375
AO-7 04 Dec 04:44:06 04:51:24 35° 297° (WNW) 04:58:42 29.400- 29.500
BRITE-PL 04 Dec 04:44:27 04:49:53 65° 101° (E) 04:55:30 437.365/2234.400
BEESAT 3 04 Dec 04:44:34 04:48:24 70° 116° (ESE) 04:52:19 437.485
YUBILEINY 04 Dec 04:53:36 05:00:12 23° 71° (ENE) 05:06:46 435.215
DOVE 4 04 Dec 04:56:29 04:58:47 13° 91° (E) 05:01:04 437.250
LilacSat-2 04 Dec 05:00:05 05:02:06 14° 94° (E) 05:04:07 437.200
NOAA 18 04 Dec 05:04:50 05:06:15 11° 92° (E) 05:07:42 137.9125
PHONESAT 2.4 04 Dec 05:05:26 05:07:49 29° 18° (NNE) 05:10:12 2401.200-2431.200
SO-50 04 Dec 05:07:04 05:11:22 43° 58° (ENE) 05:15:35 436.795
BEESAT 2 04 Dec 05:08:56 05:12:45 55° 115° (ESE) 05:16:37 435.950
CUTE-I 04 Dec 05:11:52 05:16:04 23° 96° (E) 05:20:15 437.470
Cosmos 2491 04 Dec 05:16:57 05:22:21 18° 81° (E) 05:27:41 435.465 / 435.565
STRAND 1 04 Dec 05:17:17 05:20:38 18° 67° (ENE) 05:23:58 437.568
Cosmos 2504 04 Dec 05:30:06 05:35:34 18° 68° (ENE) 05:40:52 435.465 / 435.565
Cubesat XI-IV 04 Dec 05:36:26 05:41:28 41° 99° (E) 05:46:27 437.490
NOAA 15 04 Dec 05:41:08 05:46:18 53° 101° (E) 05:51:26 137.62
RS-15 04 Dec 06:05:03 06:15:18 39° 105° (ESE) 06:25:57 29.354- 29.394
GOMX 1 04 Dec 06:10:07 06:15:16 43° 287° (WNW) 06:20:25 467.674
HORYU 2 04 Dec 06:10:43 06:13:44 18° 292° (WNW) 06:16:45 437.375
BRITE-PL 04 Dec 06:24:54 06:27:47 15° 293° (WNW) 06:30:44 437.365/2234.400
CINEMA 3 04 Dec 06:29:12 06:33:18 28° 96° (E) 06:37:14 145.822/145.860
DOVE 4 04 Dec 06:31:34 06:36:48 60° 285° (WNW) 06:41:51 437.250
LilacSat-2 04 Dec 06:33:10 06:36:23 27° 287° (WNW) 06:39:37 437.200
AIST 1 04 Dec 06:39:36 06:43:53 50° 82° (E) 06:48:09
PHONESAT 2.4 04 Dec 06:40:39 06:43:05 32° 212° (SSW) 06:45:30 2401.200-2431.200
NOAA 18 04 Dec 06:41:49 06:47:21 73° 286° (WNW) 06:52:49 137.9125
YUBILEINY 04 Dec 06:48:50 06:57:32 65° 268° (W) 07:06:12 435.215
SO-50 04 Dec 06:48:59 06:51:23 14° 252° (WSW) 06:53:47 436.795
BEESAT 2 04 Dec 06:49:47 06:50:52 11° 311° (NW) 06:51:57 435.950
CUTE-I 04 Dec 06:51:20 06:56:06 34° 290° (WNW) 07:00:50 437.470
STRAND 1 04 Dec 06:54:30 06:59:24 45° 261° (W) 07:04:19 437.568
CUBEBUG 2 04 Dec 07:03:00 07:05:08 13° 92° (E) 07:07:14 437.445
Cosmos 2491 04 Dec 07:09:20 07:18:07 75° 277° (W) 07:26:55 435.465 / 435.565
CUTE 1.7 + AOD 2 04 Dec 07:12:54 07:17:00 51° 100° (E) 07:21:06 437.475
Cubesat XI-IV 04 Dec 07:17:22 07:21:11 20° 293° (WNW) 07:24:59 437.490
AIST 2 04 Dec 07:17:42 07:21:15 29° 112° (ESE) 07:24:51 435.215
Cosmos 2504 04 Dec 07:21:08 07:29:55 80° 267° (W) 07:38:09 435.465 / 435.565
NOAA 15 04 Dec 07:22:29 07:25:34 16° 295° (WNW) 07:28:40 137.62
HO-68 04 Dec 07:22:42 07:29:51 65° 103° (ESE) 07:36:59 435.675
CANX-2 04 Dec 07:30:23 07:34:36 79° 282° (WNW) 07:38:48 2200.000
Oscar 11 04 Dec 07:42:21 07:44:06 12° 93° (E) 07:45:52 145.826/435.025
AAUSAT CUBESAT 2 04 Dec 07:46:47 07:50:42 41° 99° (E) 07:54:37 437.432
UWE-3 04 Dec 07:48:31 07:52:17 29° 97° (E) 07:55:57 435.000/436.395/437.385
UNISAT 6 04 Dec 07:56:53 07:57:23 10° 65° (ENE) 07:57:52 437.425
PRISM 04 Dec 07:58:25 08:02:22 53° 75° (ENE) 08:06:20 437.425
SEEDS 04 Dec 08:00:17 08:04:25 60° 284° (WNW) 08:08:31 437.485
CINEMA 3 04 Dec 08:06:29 08:10:14 23° 291° (WNW) 08:13:50 145.822/145.860
COMPASS 1 04 Dec 08:14:44 08:18:49 61° 284° (WNW) 08:22:56 437.405
RS-15 04 Dec 08:15:49 08:27:12 56° 305° (NW) 08:39:12 29.354- 29.394
TIGRISAT 04 Dec 08:24:20 08:27:47 21° 70° (ENE) 08:31:13 435.000
ANTELSAT 04 Dec 08:25:04 08:28:40 22° 70° (ENE) 08:32:16 437.575/2403.000
ZACube-1 04 Dec 08:33:59 08:38:11 64° 101° (E) 08:42:17 437.345
CUBEBUG 2 04 Dec 08:37:50 08:41:54 38° 287° (WNW) 08:45:51 437.445
FUNcube-1 04 Dec 08:42:53 08:47:05 76° 100° (E) 08:51:13 145.935
HUMSAT D 04 Dec 08:46:45 08:47:49 11° 93° (E) 08:48:55 437.325/437.525
CUTE 1.7 + AOD 2 04 Dec 08:51:35 08:52:20 10° 293° (WNW) 08:53:05 437.475
AIST 2 04 Dec 08:56:43 08:59:43 19° 307° (NW) 09:02:45 435.215
DELFI C3 04 Dec 09:03:23 09:07:09 40° 99° (E) 09:10:54 145.870
CUSAT 1 04 Dec 09:07:27 09:11:13 72° 97° (E) 09:14:14 437.405
HO-68 04 Dec 09:11:54 09:16:54 21° 298° (WNW) 09:21:54 435.675
Cosmos 2491 04 Dec 09:14:10 09:16:22 11° 295° (WNW) 09:18:34 435.465 / 435.565
Oscar 11 04 Dec 09:16:19 09:20:23 42° 286° (WNW) 09:24:26 145.826/435.025
Cosmos 2504 04 Dec 09:19:16 09:21:42 11° 283° (WNW) 09:24:06 435.465 / 435.565
AAUSAT CUBESAT 2 04 Dec 09:24:02 09:25:46 12° 292° (WNW) 09:27:29 437.432
UWE-3 04 Dec 09:25:37 09:28:28 18° 291° (WNW) 09:31:16 435.000/436.395/437.385
UNISAT 6 04 Dec 09:28:48 09:33:28 67° 259° (W) 09:38:08 437.425
DANDE 04 Dec 09:32:03 09:37:03 37° 97° (E) 09:40:55 436.750
POPSAT HIP 1 04 Dec 09:38:32 09:40:33 13° 67° (ENE) 09:42:34 437.405
TIGRISAT 04 Dec 10:00:01 10:04:12 32° 262° (W) 10:08:23 435.000
ANTELSAT 04 Dec 10:01:05 10:05:09 29° 263° (W) 10:09:14 437.575/2403.000
HUMSAT D 04 Dec 10:19:46 10:23:36 41° 286° (WNW) 10:27:25 437.325/437.525
JAS-2 04 Dec 10:22:17 10:29:08 77° 76° (ENE) 10:35:10 435.910
BUGSAT 1 04 Dec 10:26:53 10:29:20 15° 68° (ENE) 10:31:48 437.445
Cosmos 2499 04 Dec 10:28:02 10:34:23 23° 70° (ENE) 10:40:24 435.465 / 435.565
NANOSAT C BR1 04 Dec 10:32:10 10:36:20 56° 75° (ENE) 10:40:32 145.865
QB50P2 04 Dec 10:35:59 10:40:15 75° 77° (ENE) 10:44:33 145.880/145.840
RS-15 04 Dec 10:36:20 10:43:22 17° 333° (NNW) 10:50:33 29.354- 29.394
POLYITAN 1 04 Dec 10:36:35 10:40:50 71° 76° (ENE) 10:45:08 437.675
DELFI C3 04 Dec 10:40:08 10:41:33 12° 292° (WNW) 10:42:58 145.870
QB50P1 04 Dec 10:50:16 10:54:32 78° 259° (W) 10:58:50 145.935-145.965
AO-85 04 Dec 10:50:44 10:54:13 29° 57° (ENE) 10:57:38 145.980
DUCHIFAT 1 04 Dec 10:55:19 10:59:34 80° 259° (W) 11:03:51 145.980
ESTCUBE 1 04 Dec 11:01:12 11:05:41 63° 100° (E) 11:10:09 437.505/2401.250
50 SAT 04 Dec 11:01:35 11:03:46 15° 95° (E) 11:05:57 437.505
SPROUT 04 Dec 11:05:54 11:08:30 16° 94° (E) 11:11:04 437.525
POPSAT HIP 1 04 Dec 11:11:51 11:15:54 42° 261° (W) 11:19:59 437.405
AISAT 04 Dec 11:16:13 11:20:21 36° 98° (E) 11:24:28 437.250
DANDE 04 Dec 11:16:44 11:19:30 15° 280° (W) 11:21:56 436.750
PCSat 04 Dec 11:21:11 11:26:35 83° 295° (WNW) 11:32:02 145.827
GONETS M04 04 Dec 11:25:43 11:34:13 53° 80° (E) 11:42:40
Oscar 19 04 Dec 11:25:48 11:29:15 19° 67° (ENE) 11:32:42 437.125/150
JUGNU 04 Dec 11:29:28 11:33:34 19° 170° (S) 11:37:39 437.505
CUBEBUG 1 04 Dec 11:47:14 11:51:37 62° 285° (WNW) 11:55:59 437.445
VELOX 1 04 Dec 11:53:00 11:57:29 84° 283° (WNW) 12:01:55 145.980
BUGSAT 1 04 Dec 12:00:31 12:04:21 35° 262° (W) 12:08:15 437.445
JAS-2 04 Dec 12:11:30 12:14:23 13° 266° (W) 12:17:07 435.910
DX 1 04 Dec 12:12:39 12:17:04 84° 105° (ESE) 12:21:26 434.975-435.025
Cosmos 2499 04 Dec 12:19:42 12:28:06 63° 269° (W) 12:35:52 435.465 / 435.565
UKube-1 04 Dec 12:23:32 12:27:53 82° 104° (ESE) 12:32:12 .
AO-85 04 Dec 12:32:02 12:34:17 15° 251° (WSW) 12:36:32 145.980
TISAT 1 04 Dec 12:33:44 12:37:13 24° 97° (E) 12:40:38 437.305
50 SAT 04 Dec 12:34:11 12:36:59 22° 288° (WNW) 12:39:47 437.505
SPROUT 04 Dec 12:40:36 12:44:28 33° 287° (WNW) 12:48:17 437.525
Gurwin Techsat 1B 04 Dec 12:44:16 12:49:27 58° 74° (ENE) 12:54:40 435.225
AISAT 04 Dec 12:53:42 12:56:29 16° 292° (WNW) 12:59:16 437.250
RS-15 04 Dec 13:00:10 13:03:59 12° 12° (NNE) 13:07:47 29.354- 29.394
Oscar 19 04 Dec 13:03:22 13:08:12 42° 261° (W) 13:13:03 437.125/150
SRMSAT 04 Dec 13:05:37 13:08:45 15° 165° (SSE) 13:11:52 437.500
BEESAT 3 04 Dec 13:07:54 13:09:00 11° 50° (NE) 13:10:05 437.485
PCSat 04 Dec 13:09:50 13:10:46 10° 312° (NW) 13:11:42 145.827
SWISSCUBE 04 Dec 13:11:25 13:13:41 13° 94° (E) 13:15:55 437.505
BEESAT 04 Dec 13:15:43 13:17:55 13° 93° (E) 13:20:07 436.000
JUGNU 04 Dec 13:17:21 13:21:59 24° 180° (S) 13:26:36 437.505
GONETS M04 04 Dec 13:23:33 13:30:25 27° 276° (W) 13:37:20
ITAMSAT 1 04 Dec 13:27:57 13:32:33 32° 70° (ENE) 13:37:10 435.822/435.867
ITUPSAT 1 04 Dec 13:40:39 13:44:34 25° 97° (E) 13:48:27 437.325
AO-7 04 Dec 13:45:07 13:52:44 42° 65° (ENE) 14:00:23 29.400- 29.500
AUBIESAT-1 04 Dec 13:56:50 14:01:03 36° 102° (ESE) 14:05:04 437.475
M-CUBED/EXP-1 PRIME 04 Dec 14:07:14 14:11:52 62° 105° (ESE) 14:16:16 437.505
TISAT 1 04 Dec 14:09:30 14:12:40 21° 290° (WNW) 14:15:49 437.305
Gurwin Techsat 1B 04 Dec 14:27:07 14:29:41 14° 267° (W) 14:32:15 435.225
MOZHAYETS 4 04 Dec 14:36:13 14:39:50 23° 96° (E) 14:43:26
BEESAT 3 04 Dec 14:43:02 14:46:56 56° 245° (WSW) 14:50:49 437.485
SWISSCUBE 04 Dec 14:47:06 14:51:39 48° 287° (WNW) 14:56:12 437.505
BEESAT 04 Dec 14:51:20 14:55:54 49° 286° (WNW) 15:00:27 436.000
SRMSAT 04 Dec 14:52:48 14:57:17 22° 175° (S) 15:01:44 437.500
JUGNU 04 Dec 15:06:20 15:10:23 19° 190° (S) 15:14:26 437.505
ITAMSAT 1 04 Dec 15:07:48 15:11:58 24° 264° (W) 15:16:10 435.822/435.867
BEESAT 2 04 Dec 15:08:18 15:12:19 69° 243° (WSW) 15:16:17 435.950
RS-15 04 Dec 15:11:33 15:22:21 33° 45° (NE) 15:32:47 29.354- 29.394
ITUPSAT 1 04 Dec 15:18:21 15:22:16 26° 290° (WNW) 15:26:10 437.325
KKS-1 04 Dec 15:18:56 15:22:46 27° 97° (E) 15:26:33 437.445
ISS 04 Dec 15:20:44 15:23:45 35° 131° (SE) 15:26:48 145.825
HORYU 2 04 Dec 15:27:51 15:30:52 18° 68° (ENE) 15:33:53 437.375
STARS 04 Dec 15:30:40 15:33:22 16° 95° (E) 15:36:02 437.465
AUBIESAT-1 04 Dec 15:31:57 15:35:06 19° 297° (WNW) 15:38:10 437.475
AO-7 04 Dec 15:37:59 15:45:25 37° 260° (W) 15:52:56 29.400- 29.500
GOMX 1 04 Dec 15:39:38 15:40:31 10° 64° (ENE) 15:41:24 467.674
M-CUBED/EXP-1 PRIME 04 Dec 15:43:54 15:45:41 12° 300° (WNW) 15:47:28 437.505
O/OREOS (USA 219) 04 Dec 15:44:31 15:49:06 86° 108° (ESE) 15:53:41 437.305
BRITE-PL 04 Dec 15:51:45 15:55:38 38° 73° (ENE) 15:59:44 437.365/2234.400
CUBESAT XI-V 04 Dec 16:10:43 16:14:59 35° 98° (E) 16:19:14 437.345
MOZHAYETS 4 04 Dec 16:13:08 16:16:53 26° 289° (WNW) 16:20:38
NOAA 18 04 Dec 16:25:47 16:28:55 16° 64° (ENE) 16:32:04 137.9125
CUTE-I 04 Dec 16:29:18 16:33:38 26° 69° (ENE) 16:38:00 437.470
SRMSAT 04 Dec 16:41:24 16:45:51 22° 185° (S) 16:50:18 437.500
Cubesat XI-IV 04 Dec 16:53:51 16:58:55 44° 72° (ENE) 17:04:00 437.490
KKS-1 04 Dec 16:55:43 16:59:07 21° 291° (WNW) 17:02:29 437.445
NOAA 15 04 Dec 16:56:42 17:01:46 54° 73° (ENE) 17:06:53 137.62
ISS 04 Dec 16:57:58 17:00:20 18° 326° (NW) 17:02:43 145.825
HORYU 2 04 Dec 17:03:03 17:07:07 33° 262° (W) 17:11:11 437.375
STARS 04 Dec 17:05:44 17:09:45 35° 288° (WNW) 17:13:45 437.465
LilacSat-2 04 Dec 17:09:41 17:13:31 68° 76° (ENE) 17:17:21 437.200
GOMX 1 04 Dec 17:13:33 17:17:54 60° 261° (W) 17:22:34 467.674
AIST 2 04 Dec 17:20:43 17:24:56 70° 61° (ENE) 17:29:08 435.215
RS-15 04 Dec 17:23:37 17:35:51 72° 247° (WSW) 17:47:33 29.354- 29.394
Cosmos 2491 04 Dec 17:25:41 17:33:55 45° 78° (ENE) 17:42:06 435.465 / 435.565
CINEMA 3 04 Dec 17:26:40 17:29:48 17° 67° (ENE) 17:32:59 145.822/145.860
DOVE 4 04 Dec 17:31:50 17:36:28 82° 77° (ENE) 17:41:25 437.250
BRITE-PL 04 Dec 17:32:24 17:34:21 13° 268° (W) 17:36:20 437.365/2234.400
HO-68 04 Dec 17:47:01 17:53:03 31° 65° (ENE) 17:59:06 435.675
YUBILEINY 04 Dec 17:48:51 17:56:02 30° 85° (E) 18:03:14 435.215
CUBESAT XI-V 04 Dec 17:48:52 17:52:03 19° 291° (WNW) 17:55:16 437.345
CUTE 1.7 + AOD 2 04 Dec 18:01:46 18:04:53 20° 71° (ENE) 18:08:01 437.475
NOAA 18 04 Dec 18:03:34 18:09:00 60° 258° (WSW) 18:14:30 137.9125
Cosmos 2504 04 Dec 18:04:12 18:08:28 15° 79° (ENE) 18:12:49 435.465 / 435.565
CUTE-I 04 Dec 18:08:42 18:13:29 32° 262° (W) 18:18:17 437.470
CANX-2 04 Dec 18:18:32 18:22:27 38° 74° (ENE) 18:26:22 2200.000
SRMSAT 04 Dec 18:31:18 18:34:22 14° 195° (SSW) 18:37:27 437.500
AAUSAT CUBESAT 2 04 Dec 18:33:44 18:36:10 15° 69° (ENE) 18:38:36 437.432
Cubesat XI-IV 04 Dec 18:35:28 18:39:07 18° 265° (W) 18:42:46 437.490
NOAA 15 04 Dec 18:39:05 18:41:48 14° 267° (W) 18:44:32 137.62
UWE-3 04 Dec 18:41:37 18:44:30 16° 69° (ENE) 18:47:22 435.000/436.395/437.385
SEEDS 04 Dec 18:47:09 18:51:10 48° 75° (ENE) 18:55:10 437.485
COMPASS 1 04 Dec 19:00:39 19:04:35 45° 75° (ENE) 19:08:32 437.405
CINEMA 3 04 Dec 19:01:53 19:06:30 43° 262° (W) 19:11:14 145.822/145.860
AIST 1 04 Dec 19:04:08 19:08:03 36° 91° (E) 19:12:00
STRAND 1 04 Dec 19:09:17 19:14:24 89° 100° (E) 19:19:30 437.568
SO-50 04 Dec 19:16:29 19:20:59 42° 114° (ESE) 19:25:28 436.795
Cosmos 2491 04 Dec 19:22:58 19:30:23 33° 274° (W) 19:37:48 435.465 / 435.565
ZACube-1 04 Dec 19:25:03 19:29:00 29° 72° (ENE) 19:32:55 437.345
CUBEBUG 2 04 Dec 19:30:02 19:34:46 87° 255° (WSW) 19:39:33 437.445
FUNcube-1 04 Dec 19:33:30 19:37:35 34° 73° (ENE) 19:41:38 145.935
HO-68 04 Dec 19:33:46 19:40:28 43° 260° (W) 19:47:14 435.675
CUTE 1.7 + AOD 2 04 Dec 19:37:04 19:40:32 25° 264° (W) 19:44:01 437.475
CUSAT 1 04 Dec 19:42:04 19:45:25 27° 82° (E) 19:49:33 437.405
RS-15 04 Dec 19:42:14 19:46:01 12° 264° (W) 19:49:46 29.354- 29.394
YUBILEINY 04 Dec 19:44:04 19:52:21 48° 281° (W) 20:00:44 435.215
DELFI C3 04 Dec 19:46:25 19:48:10 13° 68° (ENE) 19:49:54 145.870
PRISM 04 Dec 19:46:58 19:47:46 10° 93° (E) 19:48:34 437.425
Cosmos 2504 04 Dec 19:52:20 20:00:30 85° 276° (W) 20:09:16 435.465 / 435.565
CANX-2 04 Dec 19:56:28 19:58:24 13° 267° (W) 20:00:21 2200.000
Oscar 11 04 Dec 20:05:53 20:10:12 79° 78° (ENE) 20:14:32 145.826/435.025
AAUSAT CUBESAT 2 04 Dec 20:07:40 20:11:20 31° 263° (W) 20:15:01 437.432
PCSat 04 Dec 20:14:01 20:18:47 30° 58° (ENE) 20:23:30 145.827
UWE-3 04 Dec 20:16:11 20:20:34 40° 262° (W) 20:24:57 435.000/436.395/437.385
COMPASS 1 04 Dec 20:39:34 20:40:18 10° 267° (W) 20:41:03 437.405
AIST 1 04 Dec 20:43:34 20:45:45 14° 286° (WNW) 20:47:57
SO-50 04 Dec 20:58:10 21:01:36 19° 308° (NW) 21:05:01 436.795
ZACube-1 04 Dec 21:01:49 21:05:13 20° 265° (W) 21:08:36 437.345
HUMSAT D 04 Dec 21:05:41 21:09:54 69° 76° (ENE) 21:14:04 437.325/437.525
FUNcube-1 04 Dec 21:10:45 21:13:49 18° 265° (W) 21:16:52 145.935
DELFI C3 04 Dec 21:19:02 21:22:37 35° 262° (W) 21:26:14 145.870
PRISM 04 Dec 21:19:15 21:23:14 46° 286° (WNW) 21:27:13 437.425
CUSAT 1 04 Dec 21:24:31 21:27:11 17° 264° (W) 21:30:17 437.405
UNISAT 6 04 Dec 21:25:32 21:29:33 34° 98° (E) 21:33:27 437.425
Cosmos 2504 04 Dec 21:51:20 21:55:11 14° 295° (WNW) 21:59:09 435.465 / 435.565
TIGRISAT 04 Dec 21:55:43 22:00:05 77° 101° (E) 22:04:22 435.000
DANDE 04 Dec 21:56:15 21:58:38 21° 263° (W) 22:01:25 436.750
ESTCUBE 1 04 Dec 21:56:25 22:00:23 32° 72° (ENE) 22:04:22 437.505/2401.250
ANTELSAT 04 Dec 21:56:47 22:01:11 85° 102° (ESE) 22:05:28 437.575/2403.000
PCSat 04 Dec 21:57:24 22:02:03 30° 252° (WSW) 22:06:40 145.827
AISAT 04 Dec 22:09:51 22:12:57 19° 69° (ENE) 22:16:04 437.250
NANOSAT C BR1 04 Dec 22:22:54 22:24:46 13° 93° (E) 22:26:38 145.865
QB50P2 04 Dec 22:26:33 22:29:21 17° 95° (E) 22:32:06 145.880/145.840
POLYITAN 1 04 Dec 22:27:16 22:29:54 16° 95° (E) 22:32:30 437.675
CUBEBUG 1 04 Dec 22:38:17 22:42:32 59° 76° (ENE) 22:46:51 437.445
QB50P1 04 Dec 22:40:07 22:43:30 23° 96° (E) 22:46:52 145.935-145.965
DUCHIFAT 1 04 Dec 22:44:35 22:47:52 22° 96° (E) 22:51:08 145.980
VELOX 1 04 Dec 22:45:35 22:49:47 47° 74° (ENE) 22:54:02 145.980
PHONESAT 2.4 04 Dec 22:55:53 22:57:39 16° 144° (SE) 22:59:26 2401.200-2431.200
Cosmos 2499 04 Dec 22:59:06 23:04:50 20° 81° (E) 23:10:44 435.465 / 435.565
POPSAT HIP 1 04 Dec 23:00:58 23:04:59 41° 99° (E) 23:08:58 437.405
UNISAT 6 04 Dec 23:03:14 23:05:54 16° 292° (WNW) 23:08:33 437.425
DX 1 04 Dec 23:03:38 23:07:40 38° 73° (ENE) 23:11:42 434.975-435.025
50 SAT 04 Dec 23:04:07 23:07:35 65° 76° (ENE) 23:11:04 437.505
UKube-1 04 Dec 23:13:32 23:17:29 36° 73° (ENE) 23:21:27 .
JAS-2 04 Dec 23:21:06 23:26:19 82° 283° (WNW) 23:31:51 435.910
TISAT 1 04 Dec 23:23:13 23:24:17 11° 66° (ENE) 23:25:23 437.305
ISS 04 Dec 23:28:14 23:31:31 61° 43° (NE) 23:34:46 145.825
SPROUT 04 Dec 23:28:39 23:32:57 82° 259° (W) 23:37:16 437.525
